TimeMDT,TemperatureF,Dew PointF,Humidity,Sea Level PressureIn,VisibilityMPH,Wind Direction,Wind SpeedMPH,Gust SpeedMPH,PrecipitationIn,Events,Conditions,WindDirDegrees,DateUTC
12:53 AM,66.9,34.0,30,29.98,10.0,East,3.5,-,N/A,,Clear,90,2013-06-27 06:53:00
1:53 AM,62.1,37.0,39,29.99,10.0,North,4.6,-,N/A,,Clear,10,2013-06-27 07:53:00
2:53 AM,60.1,32.0,35,30.01,10.0,ESE,8.1,-,N/A,,Clear,120,2013-06-27 08:53:00
3:53 AM,57.9,35.1,42,30.04,10.0,ENE,3.5,-,N/A,,Clear,70,2013-06-27 09:53:00
4:53 AM,55.9,32.0,40,30.06,10.0,SSW,3.5,-,N/A,,Clear,210,2013-06-27 10:53:00
5:53 AM,55.0,30.9,40,30.09,10.0,ENE,3.5,-,N/A,,Clear,70,2013-06-27 11:53:00
6:53 AM,59.0,33.1,38,30.10,10.0,East,3.5,-,N/A,,Clear,90,2013-06-27 12:53:00
7:53 AM,64.0,37.9,38,30.11,10.0,ENE,3.5,-,N/A,,Clear,70,2013-06-27 13:53:00
8:53 AM,71.1,37.9,30,30.11,10.0,Calm,Calm,-,N/A,,Clear,0,2013-06-27 14:53:00
9:53 AM,78.1,37.9,24,30.11,10.0,Variable,3.5,-,N/A,,Clear,0,2013-06-27 15:53:00
10:53 AM,82.0,39.0,22,30.09,10.0,Variable,3.5,-,N/A,,Clear,0,2013-06-27 16:53:00
11:53 AM,88.0,37.9,17,30.06,10.0,ESE,4.6,-,N/A,,Clear,120,2013-06-27 17:53:00
12:53 PM,93.0,37.9,15,30.05,10.0,Calm,Calm,-,N/A,,Clear,0,2013-06-27 18:53:00
1:53 PM,95.0,28.0,9,30.02,10.0,Calm,Calm,-,N/A,,Clear,0,2013-06-27 19:53:00
2:53 PM,95.0,30.0,10,30.01,10.0,SW,10.4,-,N/A,,Clear,220,2013-06-27 20:53:00
3:53 PM,97.0,30.0,9,29.99,10.0,Variable,4.6,-,N/A,,Clear,0,2013-06-27 21:53:00
4:53 PM,97.0,33.1,11,29.98,10.0,Variable,4.6,-,N/A,,Clear,0,2013-06-27 22:53:00
5:53 PM,97.0,33.1,11,29.96,10.0,NE,8.1,-,N/A,,Clear,50,2013-06-27 23:53:00
6:53 PM,97.0,35.1,11,29.95,10.0,North,5.8,-,N/A,,Clear,350,2013-06-28 00:53:00
7:53 PM,93.0,34.0,12,29.95,10.0,NNW,6.9,-,N/A,,Clear,330,2013-06-28 01:53:00
8:53 PM,87.1,33.1,15,29.97,10.0,North,4.6,-,N/A,,Clear,350,2013-06-28 02:53:00
9:53 PM,82.9,32.0,16,29.99,10.0,West,4.6,-,N/A,,Clear,270,2013-06-28 03:53:00
10:53 PM,73.9,32.0,21,30.01,10.0,SE,8.1,-,N/A,,Clear,140,2013-06-28 04:53:00
11:53 PM,71.1,36.0,28,30.01,10.0,East,6.9,-,N/A,,Clear,80,2013-06-28 05:53:00